STARLINK-32148 (60263 NORAD) Tracking and Keplerian Element Data

This shows tracking and keplerian element data for the satellite.

Feedback or suggestion? Click here.




ElementValue
Catalog60263
NameSTARLINK-32148
Epoch Orbit1321
Epoch Day286.7113949
Epoch Year2024
RAAN276.2803
Inclination53.1604
Eccentricity0.0001388
Argument of Perigee100.0884
Mean Anonmoly260.0278
Mean Motion15.39628658
Decay Rate6.88E-06
L11 60263U 24131J 24286.71139490 .00000688 00000+0 27175-4 0 9991
L22 60263 53.1604 276.2803 0001388 100.0884 260.0278 15.39628658 13212



Live tracking and technical data element details for STARLINK-32148 (NORAD 60263). STARLINK-32148 can be tracked NOW for your location showing map with azimuth and elevation plus other details from your city location.







IsCatalogInMostPopularTable: catalog: 60263, numindb: 15
Update: records affected: 1



GetName: 60263 STARLINK-32148

Hit Count: updated at: Thu, 23 Jan 2025 13:30:44 GMT